Location: Pace/Milton
(30.6162°N, 87.1503°W)
Time: 11:38:56
(UTC-06:00)

N. Korean satellite - Pass Details

Date: 07 December 2021
Orbit: 447 x 491 km, 97.3° (Epoch: 21 January)

Event Time Altitude Azimuth Distance (km) Brightness Sun altitude
Rises 05:17:34 0° 2° (N) 2,449 10.0 -15.9°
Reaches altitude 10° 05:19:40 10° 354° (N) 1,574 8.9 -15.5°
Maximum altitude 05:22:49 39° 284° (WNW) 691 6.8 -14.8°
Drops below altitude 10° 05:25:58 10° 215° (SW) 1,572 9.0 -14.2°
Sets 05:28:05 0° 207° (SSW) 2,445 10.0 -13.8°
